{"data":{"norad_id":47358,"intl_designator":"2021-005K","name":"STARLINK-2055","alt_names":[],"object_type":"PAYLOAD","status":"ACTIVE","operator":null,"country":"US","launch_date":"2021-01-20","launch_site_code":"AFETR","launch_vehicle":null,"mission":null,"orbit_class":"UNKNOWN","rcs_meters":null,"size_class":null,"mass_kg":null,"dimensions":null,"purposes":["comms"],"wikipedia_slug":null,"has_3d_model":false,"image_url":null,"decayed_at":null,"tle_current":{"epoch":"2026-09-20T03:34:26.288832Z","epoch_age_seconds":52303,"freshness":"FRESH","line1":"1 47358U 21005K   26263.14891538  .00036410  00000+0  98048-3 0  9998","line2":"2 47358  53.1552 210.6975 0003504  70.6699 289.4684 15.37521576313199","mean_motion":15.37521576,"eccentricity":0.0003504,"inclination_deg":53.1552,"raan_deg":210.6975,"arg_perigee_deg":70.6699,"mean_anomaly_deg":289.4684,"bstar":0.00098048,"rev_number":31319,"period_min":93.657222277575,"perigee_km":451.04717441938,"apogee_km":455.83474425329,"semimajor_km":6831.5779593363,"source":"CELESTRAK","updated_at":"2026-09-20T09:00:38.590091Z"}}}